SIF124 OPIS-OPKC

Flight info

Callsign SIF124
Flight time 1h 28m
Altitude 36000
Route BELKO Z301 NH
Aircraft A320/M-SDE3FGHIRWY/LB1

Departure

Time 2026-04-30 10:14
Airport Islamabad International Airport (OPIS)

Arrival

Time 2026-04-30 11:42
Airport Jinnah International Airport (OPKC)
Time Latitude Longitude Altitude Speed Heading
2026-04-30 09:23 33.55666 72.83181 1770 ft 0 kts 100°
2026-04-30 10:02 33.55666 72.83179 1770 ft 2 kts 100°
2026-04-30 10:03 33.55671 72.83148 1773 ft 4 kts 103°
2026-04-30 10:03 33.55679 72.83117 1770 ft 4 kts 112°
2026-04-30 10:03 33.55691 72.83090 1772 ft 4 kts 141°
2026-04-30 10:03 33.55706 72.83082 1770 ft 0 kts 190°
2026-04-30 10:07 33.55704 72.83082 1770 ft 1 kts 191°
2026-04-30 10:07 33.55685 72.83078 1780 ft 5 kts 191°
2026-04-30 10:07 33.55643 72.83051 1767 ft 8 kts 226°
2026-04-30 10:07 33.55607 72.82989 1772 ft 10 kts 236°
2026-04-30 10:08 33.55565 72.82914 1770 ft 12 kts 236°
2026-04-30 10:08 33.55514 72.82828 1770 ft 13 kts 234°
2026-04-30 10:08 33.55457 72.82729 1770 ft 15 kts 236°
2026-04-30 10:08 33.55385 72.82632 1772 ft 16 kts 204°
2026-04-30 10:09 33.55268 72.82602 1771 ft 17 kts 191°
2026-04-30 10:09 33.55183 72.82657 1768 ft 17 kts 100°
2026-04-30 10:09 33.55162 72.82799 1769 ft 18 kts 101°
2026-04-30 10:09 33.55138 72.82948 1772 ft 19 kts 101°
2026-04-30 10:10 33.55113 72.83107 1768 ft 20 kts 100°
2026-04-30 10:10 33.55087 72.83276 1770 ft 21 kts 100°
2026-04-30 10:10 33.55059 72.83454 1768 ft 22 kts 101°
2026-04-30 10:10 33.55031 72.83642 1769 ft 24 kts 100°
2026-04-30 10:11 33.55001 72.83841 1768 ft 25 kts 100°
2026-04-30 10:11 33.54968 72.84051 1768 ft 26 kts 101°
2026-04-30 10:11 33.54937 72.84268 1773 ft 24 kts 99°
2026-04-30 10:11 33.54910 72.84438 1769 ft 21 kts 100°
2026-04-30 10:12 33.54842 72.84547 1769 ft 18 kts 185°
2026-04-30 10:12 33.54700 72.84514 1763 ft 23 kts 191°
2026-04-30 10:12 33.54573 72.84484 1767 ft 15 kts 191°
2026-04-30 10:12 33.54522 72.84391 1763 ft 17 kts 281°
2026-04-30 10:13 33.54541 72.84267 1761 ft 38 kts 280°
2026-04-30 10:13 33.54629 72.83701 1764 ft 98 kts 281°
2026-04-30 10:13 33.54785 72.82700 1755 ft 145 kts 280°
2026-04-30 10:13 33.54999 72.81379 1906 ft 167 kts 279°
2026-04-30 10:14 33.55218 72.80012 2467 ft 168 kts 279°
2026-04-30 10:14 33.55428 72.78612 3011 ft 174 kts 279°
2026-04-30 10:14 33.55891 72.75563 3647 ft 204 kts 281°
2026-04-30 10:15 33.56076 72.73781 3807 ft 228 kts 265°
2026-04-30 10:15 33.55542 72.71904 4075 ft 251 kts 234°
2026-04-30 10:15 33.54235 72.70398 4547 ft 268 kts 221°
2026-04-30 10:15 33.52853 72.68920 5294 ft 272 kts 223°
2026-04-30 10:16 33.51394 72.67448 6083 ft 277 kts 212°
2026-04-30 10:16 33.49595 72.66605 6819 ft 281 kts 195°
2026-04-30 10:16 33.47677 72.66045 7536 ft 286 kts 194°
2026-04-30 10:17 33.43752 72.64979 9086 ft 292 kts 194°
2026-04-30 10:17 33.39710 72.63907 10201 ft 312 kts 191°
2026-04-30 10:17 33.37469 72.63663 10335 ft 336 kts 182°
2026-04-30 10:18 33.35053 72.63602 10472 ft 357 kts 182°
2026-04-30 10:18 33.32525 72.63533 10868 ft 367 kts 182°
2026-04-30 10:18 33.29955 72.63462 11449 ft 371 kts 182°
2026-04-30 10:19 33.24745 72.63312 12679 ft 378 kts 182°
2026-04-30 10:19 33.22104 72.63234 13297 ft 381 kts 183°
2026-04-30 10:19 33.19477 72.63154 13854 ft 384 kts 183°
2026-04-30 10:19 33.16857 72.63075 14371 ft 387 kts 183°
2026-04-30 10:20 33.14155 72.62994 14900 ft 390 kts 183°
2026-04-30 10:20 33.08680 72.62807 15954 ft 396 kts 186°
2026-04-30 10:20 33.05965 72.62257 16486 ft 397 kts 197°
2026-04-30 10:21 33.03378 72.61105 17038 ft 398 kts 208°
2026-04-30 10:21 33.01011 72.59385 17580 ft 399 kts 218°
2026-04-30 10:21 32.98775 72.57399 18112 ft 403 kts 219°
2026-04-30 10:21 32.96520 72.55399 18590 ft 406 kts 219°
2026-04-30 10:22 32.94275 72.53412 19070 ft 409 kts 218°
2026-04-30 10:22 32.91977 72.51380 19554 ft 413 kts 218°
2026-04-30 10:22 32.89663 72.49338 20033 ft 416 kts 218°
2026-04-30 10:22 32.87325 72.47278 20489 ft 419 kts 218°
2026-04-30 10:23 32.84976 72.45211 20938 ft 422 kts 218°
2026-04-30 10:23 32.82607 72.43128 21350 ft 425 kts 218°
2026-04-30 10:23 32.80219 72.41032 21758 ft 428 kts 218°
2026-04-30 10:23 32.77810 72.38919 22151 ft 431 kts 218°
2026-04-30 10:24 32.75392 72.36798 22543 ft 434 kts 218°
2026-04-30 10:24 32.72952 72.34660 22922 ft 437 kts 218°
2026-04-30 10:24 32.70500 72.32509 23299 ft 440 kts 217°
2026-04-30 10:24 32.68030 72.30344 23609 ft 442 kts 218°
2026-04-30 10:25 32.65550 72.28169 23918 ft 445 kts 218°
2026-04-30 10:25 32.63057 72.25982 24228 ft 447 kts 218°
2026-04-30 10:25 32.60548 72.23784 24509 ft 449 kts 218°
2026-04-30 10:25 32.58026 72.21575 24808 ft 452 kts 219°
2026-04-30 10:26 32.55495 72.19362 25106 ft 454 kts 219°
2026-04-30 10:26 32.52941 72.17133 25406 ft 456 kts 219°
2026-04-30 10:26 32.50377 72.14899 25694 ft 459 kts 219°
2026-04-30 10:26 32.47796 72.12660 25984 ft 461 kts 218°
2026-04-30 10:27 32.45032 72.10691 26259 ft 467 kts 210°
2026-04-30 10:27 32.42128 72.08970 26651 ft 467 kts 210°
2026-04-30 10:27 32.39227 72.07258 27064 ft 466 kts 210°
2026-04-30 10:27 32.36322 72.05543 27398 ft 467 kts 211°
2026-04-30 10:28 32.33416 72.03823 27737 ft 467 kts 211°
2026-04-30 10:28 32.30512 72.02102 28096 ft 467 kts 211°
2026-04-30 10:28 32.27604 72.00380 28461 ft 467 kts 212°
2026-04-30 10:28 32.24703 71.98663 28821 ft 467 kts 212°
2026-04-30 10:29 32.21790 71.96943 29191 ft 468 kts 212°
2026-04-30 10:29 32.18877 71.95226 29569 ft 468 kts 212°
2026-04-30 10:29 32.16003 71.93533 29908 ft 468 kts 213°
2026-04-30 10:29 32.13096 71.91822 30228 ft 467 kts 213°
2026-04-30 10:30 32.10192 71.90114 30552 ft 465 kts 214°
2026-04-30 10:30 32.07293 71.88412 30883 ft 464 kts 215°
2026-04-30 10:30 32.04407 71.86719 31232 ft 463 kts 215°
2026-04-30 10:30 32.01527 71.85029 31610 ft 460 kts 216°
2026-04-30 10:31 31.98673 71.83353 32002 ft 458 kts 216°
2026-04-30 10:31 31.95830 71.81682 32404 ft 455 kts 217°
2026-04-30 10:31 31.93007 71.80026 32810 ft 452 kts 217°
2026-04-30 10:31 31.90200 71.78381 33215 ft 449 kts 217°
2026-04-30 10:32 31.87407 71.76751 33597 ft 447 kts 218°
2026-04-30 10:32 31.84634 71.75135 33921 ft 444 kts 218°
2026-04-30 10:32 31.81868 71.73521 34204 ft 443 kts 218°
2026-04-30 10:32 31.79109 71.71907 34429 ft 442 kts 218°
2026-04-30 10:33 31.76355 71.70293 34662 ft 441 kts 218°
2026-04-30 10:33 31.73609 71.68687 34887 ft 441 kts 218°
2026-04-30 10:33 31.70865 71.67084 35111 ft 441 kts 218°
2026-04-30 10:33 31.68122 71.65486 35324 ft 440 kts 217°
2026-04-30 10:34 31.65382 71.63892 35541 ft 440 kts 217°
2026-04-30 10:34 31.62628 71.62292 35650 ft 442 kts 217°
2026-04-30 10:34 31.57071 71.59051 35671 ft 451 kts 217°
2026-04-30 10:35 31.51410 71.55762 35644 ft 455 kts 217°
2026-04-30 10:35 31.45769 71.52504 35661 ft 454 kts 217°
2026-04-30 10:36 31.40102 71.49232 35662 ft 454 kts 217°
2026-04-30 10:36 31.34436 71.45953 35665 ft 454 kts 217°
2026-04-30 10:37 31.28769 71.42686 35669 ft 455 kts 216°
2026-04-30 10:37 31.23087 71.39419 35653 ft 455 kts 216°
2026-04-30 10:38 31.17403 71.36149 35662 ft 455 kts 216°
2026-04-30 10:38 31.11719 71.32879 35667 ft 455 kts 216°
2026-04-30 10:39 31.06040 71.29608 35670 ft 455 kts 216°
2026-04-30 10:39 31.00391 71.26362 35664 ft 455 kts 216°
2026-04-30 10:40 30.94697 71.23102 35647 ft 456 kts 216°
2026-04-30 10:40 30.88998 71.19863 35651 ft 456 kts 216°
2026-04-30 10:41 30.83289 71.16613 35655 ft 456 kts 216°
2026-04-30 10:41 30.77583 71.13350 35651 ft 456 kts 216°
2026-04-30 10:42 30.71884 71.10094 35653 ft 457 kts 216°
2026-04-30 10:42 30.66204 71.06862 35656 ft 457 kts 216°
2026-04-30 10:43 30.60498 71.03616 35631 ft 457 kts 216°
2026-04-30 10:43 30.54784 71.00372 35639 ft 457 kts 216°
2026-04-30 10:44 30.49063 70.97127 35640 ft 458 kts 216°
2026-04-30 10:44 30.43342 70.93898 35646 ft 458 kts 216°
2026-04-30 10:45 30.37607 70.90666 35644 ft 458 kts 216°
2026-04-30 10:45 30.31881 70.87432 35639 ft 458 kts 216°
2026-04-30 10:46 30.26153 70.84201 35651 ft 457 kts 216°
2026-04-30 10:46 30.20438 70.80960 35654 ft 456 kts 217°
2026-04-30 10:47 30.14855 70.77532 35649 ft 453 kts 218°
2026-04-30 10:47 30.09352 70.74004 35654 ft 452 kts 219°
2026-04-30 10:48 30.03823 70.70510 35626 ft 453 kts 218°
2026-04-30 10:48 29.98300 70.67086 35632 ft 454 kts 217°
2026-04-30 10:49 29.92731 70.63647 35633 ft 454 kts 217°
2026-04-30 10:49 29.87165 70.60201 35642 ft 454 kts 218°
2026-04-30 10:50 29.81585 70.56747 35636 ft 454 kts 218°
2026-04-30 10:50 29.76011 70.53309 35617 ft 454 kts 217°
2026-04-30 10:51 29.70460 70.49895 35627 ft 454 kts 217°
2026-04-30 10:51 29.64877 70.46459 35636 ft 454 kts 218°
2026-04-30 10:52 29.59312 70.43028 35636 ft 454 kts 217°
2026-04-30 10:52 29.53737 70.39604 35638 ft 454 kts 217°
2026-04-30 10:53 29.48159 70.36181 35636 ft 455 kts 217°
2026-04-30 10:53 29.42571 70.32758 35613 ft 455 kts 217°
2026-04-30 10:54 29.36971 70.29326 35614 ft 457 kts 217°
2026-04-30 10:54 29.31395 70.25924 35611 ft 457 kts 217°
2026-04-30 10:55 29.25774 70.22492 35613 ft 458 kts 217°
2026-04-30 10:55 29.20158 70.19052 35614 ft 458 kts 217°
2026-04-30 10:56 29.14530 70.15624 35608 ft 458 kts 217°
2026-04-30 10:56 29.08906 70.12212 35606 ft 458 kts 217°
2026-04-30 10:57 29.03280 70.08796 35611 ft 458 kts 217°
2026-04-30 10:57 28.97661 70.05381 35610 ft 457 kts 217°
2026-04-30 10:58 28.92038 70.01969 35607 ft 457 kts 217°
2026-04-30 10:58 28.86414 69.98571 35582 ft 457 kts 217°
2026-04-30 10:59 28.80782 69.95173 35593 ft 457 kts 217°
2026-04-30 10:59 28.76110 69.92344 35596 ft 457 kts 217°
2026-04-30 11:00 28.70482 69.88949 35598 ft 458 kts 217°
2026-04-30 11:00 28.64851 69.85559 35602 ft 458 kts 217°
2026-04-30 11:01 28.59218 69.82167 35605 ft 457 kts 217°
2026-04-30 11:01 28.53605 69.78794 35590 ft 457 kts 216°
2026-04-30 11:02 28.48012 69.75375 35597 ft 456 kts 217°
2026-04-30 11:02 28.42449 69.71910 35600 ft 456 kts 217°
2026-04-30 11:03 28.36884 69.68459 35605 ft 456 kts 217°
2026-04-30 11:04 28.28553 69.63332 35606 ft 456 kts 217°
2026-04-30 11:04 28.22941 69.59880 35597 ft 456 kts 217°
2026-04-30 11:05 28.17357 69.56450 35602 ft 456 kts 217°
2026-04-30 11:05 28.11771 69.53032 35606 ft 457 kts 217°
2026-04-30 11:06 28.06179 69.49612 35610 ft 456 kts 216°
2026-04-30 11:06 28.00633 69.46220 35612 ft 456 kts 216°
2026-04-30 11:07 27.95053 69.42811 35616 ft 456 kts 216°
2026-04-30 11:07 27.89478 69.39404 35605 ft 455 kts 216°
2026-04-30 11:08 27.83903 69.36003 35611 ft 455 kts 216°
2026-04-30 11:08 27.78319 69.32607 35613 ft 455 kts 216°
2026-04-30 11:09 27.72741 69.29218 35612 ft 455 kts 216°
2026-04-30 11:09 27.67160 69.25833 35615 ft 455 kts 216°
2026-04-30 11:10 27.61577 69.22444 35605 ft 455 kts 216°
2026-04-30 11:10 27.56025 69.19074 35608 ft 455 kts 216°
2026-04-30 11:11 27.50446 69.15688 35627 ft 455 kts 216°
2026-04-30 11:11 27.44864 69.12319 35622 ft 455 kts 215°
2026-04-30 11:12 27.39279 69.08955 35620 ft 455 kts 216°
2026-04-30 11:12 27.33712 69.05582 35620 ft 454 kts 216°
2026-04-30 11:13 27.28143 69.02211 35603 ft 454 kts 215°
2026-04-30 11:13 27.22567 68.98850 35611 ft 455 kts 215°
2026-04-30 11:14 27.16991 68.95494 35619 ft 455 kts 215°
2026-04-30 11:14 27.11415 68.92128 35616 ft 455 kts 215°
2026-04-30 11:15 27.05835 68.88771 35616 ft 455 kts 215°
2026-04-30 11:15 27.00250 68.85425 35599 ft 455 kts 215°
2026-04-30 11:16 26.94669 68.82086 35613 ft 455 kts 215°
2026-04-30 11:16 26.89092 68.78741 35618 ft 454 kts 215°
2026-04-30 11:17 26.83522 68.75397 35619 ft 454 kts 215°
2026-04-30 11:17 26.77948 68.72067 35618 ft 454 kts 215°
2026-04-30 11:18 26.72376 68.68735 35616 ft 454 kts 215°
2026-04-30 11:18 26.64045 68.63780 35617 ft 454 kts 215°
2026-04-30 11:19 26.58472 68.60454 35619 ft 454 kts 215°
2026-04-30 11:19 26.52904 68.57121 35619 ft 454 kts 215°
2026-04-30 11:20 26.47334 68.53799 35619 ft 454 kts 215°
2026-04-30 11:20 26.41763 68.50480 35619 ft 453 kts 214°
2026-04-30 11:21 26.36201 68.47177 35610 ft 453 kts 214°
2026-04-30 11:21 26.30639 68.43874 35616 ft 453 kts 214°
2026-04-30 11:22 26.25078 68.40576 35618 ft 453 kts 214°
2026-04-30 11:22 26.19711 68.37063 35562 ft 447 kts 220°
2026-04-30 11:23 26.17152 68.35103 35333 ft 446 kts 220°
2026-04-30 11:23 26.14562 68.33117 35088 ft 446 kts 221°
2026-04-30 11:23 26.09479 68.29208 34629 ft 447 kts 221°
2026-04-30 11:24 26.06912 68.27240 34006 ft 449 kts 220°
2026-04-30 11:24 26.04328 68.25263 33144 ft 453 kts 220°
2026-04-30 11:24 26.01722 68.23273 32277 ft 456 kts 220°
2026-04-30 11:25 25.96455 68.19251 30480 ft 463 kts 220°
2026-04-30 11:25 25.93789 68.17216 29504 ft 466 kts 220°
2026-04-30 11:25 25.88401 68.13116 27305 ft 471 kts 220°
2026-04-30 11:26 25.82952 68.08974 24985 ft 478 kts 220°
2026-04-30 11:26 25.80208 68.06885 24080 ft 476 kts 220°
2026-04-30 11:26 25.77490 68.04821 23290 ft 471 kts 220°
2026-04-30 11:27 25.74801 68.02779 22380 ft 467 kts 220°
2026-04-30 11:27 25.72141 68.00764 21605 ft 459 kts 220°
2026-04-30 11:27 25.69518 67.98779 20825 ft 453 kts 220°
2026-04-30 11:27 25.66933 67.96822 20050 ft 448 kts 219°
2026-04-30 11:28 25.61846 67.92968 18543 ft 438 kts 219°
2026-04-30 11:28 25.59372 67.91093 17799 ft 433 kts 219°
2026-04-30 11:28 25.56905 67.89224 17057 ft 425 kts 218°
2026-04-30 11:29 25.54484 67.87394 16400 ft 420 kts 218°
2026-04-30 11:29 25.52077 67.85573 15745 ft 416 kts 218°
2026-04-30 11:29 25.47331 67.81980 14493 ft 411 kts 217°
2026-04-30 11:30 25.42623 67.78428 13204 ft 407 kts 217°
2026-04-30 11:30 25.40293 67.76675 12518 ft 404 kts 217°
2026-04-30 11:30 25.37982 67.74935 11854 ft 400 kts 217°
2026-04-30 11:31 25.35689 67.73203 11163 ft 397 kts 217°
2026-04-30 11:31 25.33418 67.71489 10678 ft 389 kts 217°
2026-04-30 11:31 25.31233 67.69847 10559 ft 371 kts 217°
2026-04-30 11:31 25.29143 67.68278 10436 ft 354 kts 217°
2026-04-30 11:32 25.27151 67.66782 10330 ft 339 kts 217°
2026-04-30 11:32 25.25263 67.65366 10218 ft 327 kts 218°
2026-04-30 11:32 25.23390 67.63962 10100 ft 315 kts 217°
2026-04-30 11:33 25.19883 67.61332 9819 ft 300 kts 217°
2026-04-30 11:33 25.18161 67.60034 9705 ft 298 kts 218°
2026-04-30 11:33 25.16447 67.58741 9482 ft 300 kts 218°
2026-04-30 11:33 25.14714 67.57435 9071 ft 300 kts 217°
2026-04-30 11:34 25.12996 67.56145 8745 ft 298 kts 218°
2026-04-30 11:34 25.11286 67.54859 8396 ft 297 kts 218°
2026-04-30 11:34 25.09590 67.53586 7983 ft 292 kts 217°
2026-04-30 11:34 25.07911 67.52329 7368 ft 290 kts 218°
2026-04-30 11:35 25.06443 67.50858 6799 ft 282 kts 231°
2026-04-30 11:35 25.05148 67.49238 6224 ft 281 kts 231°
2026-04-30 11:35 25.03868 67.47627 5728 ft 276 kts 231°
2026-04-30 11:35 25.02614 67.46054 5284 ft 269 kts 231°
2026-04-30 11:36 25.01411 67.44513 4900 ft 261 kts 232°
2026-04-30 11:36 25.00237 67.43028 4566 ft 252 kts 231°
2026-04-30 11:36 24.99122 67.41595 4273 ft 241 kts 232°
2026-04-30 11:36 24.98051 67.40224 4040 ft 234 kts 231°
2026-04-30 11:37 24.97004 67.38874 3802 ft 229 kts 231°
2026-04-30 11:37 24.96027 67.37522 3537 ft 223 kts 244°
2026-04-30 11:37 24.95533 67.35934 3279 ft 218 kts 255°
2026-04-30 11:37 24.95135 67.34326 3013 ft 217 kts 255°
2026-04-30 11:38 24.94737 67.32734 2737 ft 212 kts 255°
2026-04-30 11:38 24.94353 67.31215 2479 ft 199 kts 255°
2026-04-30 11:38 24.93998 67.29812 2272 ft 187 kts 255°
2026-04-30 11:38 24.93658 67.28467 2018 ft 176 kts 255°
2026-04-30 11:39 24.93349 67.27246 1808 ft 153 kts 255°
2026-04-30 11:39 24.93077 67.26172 1632 ft 141 kts 255°
2026-04-30 11:39 24.92820 67.25156 1458 ft 136 kts 253°
2026-04-30 11:39 24.92566 67.24151 1285 ft 136 kts 253°
2026-04-30 11:40 24.92314 67.23153 1123 ft 134 kts 253°
2026-04-30 11:40 24.92063 67.22165 957 ft 135 kts 253°
2026-04-30 11:40 24.91811 67.21168 793 ft 133 kts 251°
2026-04-30 11:40 24.91562 67.20187 633 ft 134 kts 251°
2026-04-30 11:41 24.91317 67.19197 473 ft 134 kts 254°
2026-04-30 11:41 24.91053 67.18184 283 ft 138 kts 253°
2026-04-30 11:41 24.90798 67.17184 125 ft 133 kts 252°
2026-04-30 11:41 24.90583 67.16327 102 ft 95 kts 255°
2026-04-30 11:42 24.90454 67.15812 104 ft 38 kts 257°
2026-04-30 11:42 24.90397 67.15594 103 ft 25 kts 254°
2026-04-30 11:42 24.90352 67.15412 103 ft 24 kts 254°
2026-04-30 11:42 24.90305 67.15231 103 ft 25 kts 254°
2026-04-30 11:43 24.90250 67.15059 104 ft 19 kts 220°
2026-04-30 11:43 24.90180 67.15140 101 ft 18 kts 103°
2026-04-30 11:43 24.90146 67.15283 102 ft 21 kts 104°
2026-04-30 11:43 24.90158 67.15441 100 ft 22 kts 72°
2026-04-30 11:44 24.90200 67.15599 101 ft 22 kts 76°
2026-04-30 11:44 24.90242 67.15753 100 ft 21 kts 73°
2026-04-30 11:44 24.90278 67.15911 102 ft 22 kts 76°
2026-04-30 11:44 24.90320 67.16074 102 ft 22 kts 72°
2026-04-30 11:45 24.90360 67.16230 102 ft 19 kts 75°
2026-04-30 11:45 24.90352 67.16352 102 ft 16 kts 141°
2026-04-30 11:45 24.90267 67.16431 101 ft 16 kts 123°
2026-04-30 11:45 24.90220 67.16508 100 ft 7 kts 124°
2026-04-30 11:46 24.90216 67.16514 101 ft 0 kts 124°